Wind_Speed
37 38 38 39 40 40 38 35 33 32 32 31 30 30 29 29 28 29 27 24 22 22 21 20 19 18 18 17 16 15 15 14 14 13 13 13 13 12 12 12 12 12 12 12 12 13 13 13 13
38 39 40 40 41 41 38 36 35 34 33 33 33 32 32 31 31 31 28 25 24 24 23 22 21 21 20 19 18 17 17 16 15 15 14 14 14 14 13 13 14 14 14 14 14 14 14 15 15
39 40 41 42 42 40 37 37 37 36 36 35 35 34 34 33 32 32 30 28 27 26 25 24 23 22 21 20 20 19 18 17 17 16 16 16 15 15 15 15 15 16 16 16 16 16 16 16 17
40 41 43 44 42 38 37 37 38 38 38 37 37 37 36 34 33 32 31 31 29 28 27 26 25 24 23 22 21 21 20 19 18 18 17 17 17 17 17 17 17 17 17 17 17 17 18 18 18
41 43 44 44 41 38 38 38 39 39 39 39 39 38 37 36 35 35 34 32 31 30 29 28 27 25 24 23 23 22 21 20 19 19 18 18 18 18 18 18 18 18 19 19 19 19 19 19 19
42 44 45 44 41 39 39 40 40 39 40 40 40 40 38 38 37 37 36 34 33 32 31 30 28 27 26 25 24 23 22 22 21 20 20 20 19 19 19 20 20 20 20 20 20 20 20 20 20
42 43 44 43 41 41 40 41 41 40 40 41 41 41 39 39 38 38 37 36 35 33 33 32 30 29 28 27 26 25 24 23 23 22 22 22 21 21 21 21 21 21 21 21 21 21 21 21 22
42 44 44 43 42 41 40 42 41 40 41 41 43 42 40 39 39 39 38 38 36 35 34 33 32 31 30 29 28 27 26 25 25 24 24 23 23 23 23 23 22 22 22 22 22 22 22 23 23
44 45 44 42 42 41 41 42 41 41 43 43 43 42 41 40 39 39 39 38 37 37 36 35 33 32 32 31 30 29 28 27 26 26 26 25 25 25 24 24 23 23 23 23 23 23 24 24 24
44 45 42 41 42 42 43 42 40 41 42 43 43 42 41 40 40 40 39 39 38 38 37 36 35 34 33 32 31 30 30 29 28 28 27 27 26 26 26 25 25 25 24 24 24 24 25 25 26
43 43 41 42 43 44 44 43 41 41 43 43 42 41 41 40 40 40 40 40 39 39 37 37 36 35 34 33 33 32 31 30 30 29 29 28 28 27 27 26 26 26 26 26 26 26 27 27 28
42 42 42 43 43 45 44 43 42 41 42 42 42 43 42 41 40 40 40 40 40 40 38 38 37 36 35 35 34 33 32 32 31 31 30 29 29 28 28 27 27 27 27 27 27 27 28 28 29
42 41 43 43 43 43 43 43 43 43 42 42 41 42 42 41 41 41 41 41 41 40 39 38 38 37 36 35 35 34 33 33 32 31 31 30 30 29 29 29 29 28 29 29 29 29 29 30 30
41 41 43 43 43 43 43 42 43 42 42 42 41 42 41 41 41 42 42 41 40 40 40 39 38 38 37 36 35 35 34 33 33 32 32 31 31 30 30 30 30 30 30 30 30 30 30 30 31
41 41 43 43 43 43 44 43 43 42 43 42 42 42 42 41 41 42 42 41 40 40 40 39 39 38 38 37 36 36 35 34 34 33 32 32 32 31 31 31 31 31 31 30 30 31 31 31 31
41 42 42 42 43 43 44 43 42 42 42 42 42 42 42 42 42 42 41 41 41 40 39 39 39 39 38 37 37 36 36 35 35 34 34 33 33 32 32 32 31 31 31 31 31 31 31 31 31
39 40 40 40 43 44 45 43 42 41 41 41 42 42 42 42 42 41 41 41 41 41 41 40 39 39 39 38 37 36 36 35 35 35 35 34 34 33 33 32 32 32 31 31 32 32 32 31 31
38 38 39 40 41 43 44 43 42 42 42 42 42 42 43 43 42 41 41 41 41 41 41 41 40 40 39 38 38 37 36 35 35 35 35 35 36 35 34 33 33 32 32 32 31 31 31 31 31
37 38 38 38 40 42 42 42 43 43 43 42 43 44 43 43 43 42 41 41 41 41 41 41 41 40 39 39 38 37 36 36 36 36 35 36 35 35 34 34 33 33 32 31 31 31 31 31 31
37 36 36 37 38 40 41 42 43 44 43 43 43 44 43 43 43 42 41 41 41 41 41 41 41 41 40 39 38 38 37 37 36 35 35 35 35 35 34 34 33 32 32 31 31 31 31 32 31
36 35 35 36 36 38 40 42 44 44 43 43 43 44 43 43 42 42 42 41 40 40 40 41 41 41 40 39 39 38 37 37 36 35 35 35 35 35 34 33 32 32 32 32 32 32 31 32 32
32 33 33 36 36 38 40 41 41 42 42 42 43 43 43 43 43 42 42 41 41 40 40 41 40 40 39 39 39 38 38 37 36 36 35 35 35 34 33 33 33 32 32 32 31 31 32 32 33
32 31 32 33 35 37 39 41 40 42 43 42 42 42 43 43 43 42 42 41 42 41 41 40 41 40 40 39 39 39 38 37 36 36 36 35 35 34 33 33 33 32 32 32 32 32 33 33 34
30 30 30 32 33 36 38 39 40 41 42 42 42 42 43 43 43 43 43 42 42 42 42 40 41 41 40 40 39 39 39 38 37 36 36 36 35 35 34 34 33 33 33 33 33 33 33 34 35
28 28 28 29 31 34 35 38 39 39 40 40 41 42 41 41 42 42 42 42 42 42 42 41 40 40 40 40 40 39 39 39 37 36 37 37 36 36 35 35 34 34 34 34 34 34 34 35 36
27 28 28 27 29 31 33 36 37 37 38 39 40 40 41 40 40 41 41 42 41 41 41 41 41 41 41 40 39 38 38 38 39 38 37 37 37 36 36 36 35 34 34 34 35 35 35 36 36
28 29 29 28 28 29 31 34 35 36 37 38 39 39 40 40 40 40 40 41 41 41 41 40 40 40 40 39 39 38 38 39 39 38 38 37 37 37 36 35 35 35 35 35 36 36 36 37 37
27 28 29 29 28 29 31 33 34 34 35 36 38 39 38 38 39 39 40 40 40 40 40 40 40 39 40 39 39 38 39 39 39 39 38 38 37 37 36 36 35 35 35 35 36 36 37 37 37
27 27 27 27 27 28 30 31 32 33 33 34 36 37 37 37 37 38 39 39 39 39 39 40 39 39 39 39 39 39 39 39 40 40 39 38 37 36 36 36 36 36 36 36 37 37 37 37 38
26 27 27 27 26 27 28 29 29 30 32 33 35 36 37 37 37 37 37 38 39 39 39 39 40 39 39 39 39 39 39 39 40 40 39 39 38 37 37 37 37 37 36 37 38 38 38 38 38
Wind_Direction
236 235 234 234 235 236 236 234 235 235 234 234 234 236 236 237 238 240 240 238 237 236 237 238 238 239 239 240 242 244 246 249 251 254 256 259 263 266 271 274 277 279 280 281 283 285 286 287 288
235 235 234 235 235 236 235 234 235 235 235 235 235 235 236 237 238 240 241 239 238 238 237 237 238 239 240 242 244 245 247 249 252 254 257 260 263 266 269 273 276 278 280 282 282 283 284 286 288
235 235 235 235 235 236 235 235 235 235 235 235 236 236 236 238 238 241 242 240 239 238 237 237 239 240 241 243 245 246 247 249 252 255 257 259 262 266 269 271 274 277 280 282 283 282 284 286 288
235 235 235 235 235 235 235 235 235 235 235 236 236 237 238 239 240 241 241 241 239 238 238 238 239 240 241 243 245 246 247 249 252 255 257 259 262 265 268 271 274 276 279 281 282 283 284 285 287
235 235 235 236 235 234 234 235 236 236 236 236 236 237 237 238 239 240 241 241 239 238 238 239 239 240 241 242 243 245 248 250 253 255 257 260 263 266 269 271 274 276 277 279 280 282 283 284 285
236 236 236 236 235 234 234 236 236 236 236 237 237 238 237 238 239 240 240 240 239 238 238 239 240 240 241 242 243 245 248 250 253 256 259 261 265 268 270 273 274 275 276 277 278 280 281 283 284
237 236 237 237 236 234 234 236 236 236 237 237 237 238 237 237 238 238 239 239 239 238 238 239 239 239 241 242 243 245 248 251 254 257 259 262 265 268 271 274 276 275 275 276 277 278 279 281 282
237 237 236 236 236 235 235 236 237 236 237 237 237 237 237 236 236 237 238 238 239 238 239 238 238 239 240 242 243 245 248 251 254 258 260 263 265 268 270 273 275 276 275 275 276 277 279 281 282
236 237 236 236 236 236 235 236 236 237 238 238 238 238 238 237 237 237 237 237 238 238 238 238 238 239 240 242 244 246 249 251 254 258 260 263 266 268 270 272 274 275 275 275 276 277 279 281 283
237 238 237 237 236 237 235 235 235 236 237 238 238 238 237 237 236 236 236 236 237 238 238 238 238 239 240 242 244 246 249 252 254 257 260 263 266 268 269 271 272 273 274 274 275 277 279 282 283
237 238 237 237 236 236 236 235 235 236 237 237 238 237 236 235 236 236 235 235 236 236 237 238 239 239 241 242 244 246 249 252 255 257 260 262 265 267 268 268 270 272 273 274 276 278 280 281 283
237 236 236 237 236 236 237 236 236 237 238 238 237 236 235 234 234 235 235 235 235 236 236 238 239 240 241 242 244 247 249 252 255 257 259 262 264 265 267 268 269 271 273 275 277 278 280 282 283
237 235 236 237 237 236 236 237 236 237 237 238 237 237 236 235 235 235 234 234 235 235 236 238 240 240 241 242 245 247 249 252 254 257 259 261 263 265 266 268 269 270 272 274 277 279 281 282 283
238 236 236 236 236 237 236 236 235 235 236 236 236 236 236 235 234 235 235 234 235 235 236 237 239 241 241 243 244 247 249 252 254 257 259 261 263 264 265 267 269 270 272 274 276 278 281 282 283
237 237 238 237 236 237 236 235 235 235 236 236 236 235 235 235 234 234 235 235 235 235 236 237 239 241 242 243 244 247 249 251 254 256 258 260 262 263 266 268 269 271 272 274 276 278 280 281 282
238 239 239 238 236 236 236 235 234 235 235 236 236 234 234 234 234 234 235 235 235 235 235 237 238 239 241 242 244 247 249 251 253 255 257 259 261 262 265 267 270 272 273 275 277 278 279 281 282
236 239 240 238 236 235 236 235 234 234 234 235 235 234 234 233 234 234 235 235 235 235 235 237 239 240 241 242 244 247 249 251 253 255 257 258 261 263 265 268 270 272 273 275 276 277 279 281 283
236 238 240 239 237 237 236 235 235 233 234 235 235 235 234 234 234 234 235 235 235 235 235 237 239 241 242 243 245 247 249 251 253 255 257 259 261 265 267 268 270 272 274 274 276 277 278 280 283
237 238 239 238 237 237 236 235 234 233 234 235 236 235 235 234 233 234 234 235 235 235 236 237 239 242 243 244 246 247 249 251 253 255 257 260 262 264 267 268 269 271 273 275 276 277 278 280 282
235 237 238 237 236 236 235 233 233 232 234 235 235 235 234 233 233 233 234 235 236 237 237 238 240 242 243 244 246 248 249 250 252 254 256 258 260 263 265 267 268 270 272 275 276 277 278 280 282
233 236 237 238 237 236 235 234 233 232 233 232 233 234 234 234 233 233 233 234 235 237 237 239 240 241 243 245 246 248 249 250 253 253 255 257 260 262 263 265 267 270 273 275 277 278 280 281 283
233 235 237 238 237 235 234 235 232 232 232 231 233 234 234 233 234 234 234 235 236 237 238 239 239 241 243 245 246 247 248 250 252 253 255 257 259 261 263 266 268 270 272 274 276 277 279 281 284
234 234 236 237 237 236 234 235 232 232 233 233 233 234 234 234 234 235 236 236 236 236 237 239 240 241 243 245 246 248 248 250 252 253 254 256 258 261 263 266 268 270 272 273 275 277 279 282 284
234 235 238 238 237 236 234 236 235 234 234 234 234 235 235 234 235 235 236 236 237 237 237 239 240 241 243 245 246 248 248 249 252 253 254 256 258 260 263 266 268 270 272 274 275 277 279 281 284
232 233 235 235 236 238 236 238 237 236 235 234 234 235 235 235 236 236 236 237 238 238 238 239 241 241 243 244 245 246 247 249 251 253 254 256 258 260 263 266 268 270 272 273 275 277 279 281 284
231 231 231 235 238 240 237 237 237 237 236 234 234 235 236 236 236 237 236 236 237 237 238 239 240 241 243 244 244 245 247 249 250 253 254 256 259 261 263 265 268 270 272 274 275 277 279 282 284
230 230 232 236 239 241 237 236 237 237 237 237 236 237 237 236 236 236 235 236 236 236 237 238 240 241 242 243 244 245 247 248 251 252 254 257 259 260 263 265 267 269 271 273 276 278 281 283 285
232 233 233 234 238 242 241 239 239 239 238 238 238 238 238 238 237 236 235 236 237 237 237 237 239 240 242 243 244 245 246 248 250 252 255 257 258 260 262 264 266 269 272 274 276 279 282 284 286
231 232 233 235 239 241 244 244 242 242 241 239 239 239 239 239 239 238 238 237 237 237 237 237 238 240 242 243 244 245 247 249 251 253 255 256 258 260 262 263 266 269 272 275 277 280 282 284 286
234 233 233 235 241 242 244 245 246 247 245 242 240 240 240 239 238 238 238 238 238 238 238 238 239 240 242 244 244 246 247 249 251 253 255 256 258 260 262 264 267 269 272 275 277 279 282 284 286
Height
5782 5785 5788 5790 5793 5795 5800 5808 5812 5815 5819 5822 5825 5827 5830 5832 5835 5838 5839 5841 5844 5846 5848 5850 5852 5853 5855 5856 5858 5859 5860 5861 5862 5863 5863 5864 5865 5865 5865 5866 5866 5867 5867 5867 5867 5868 5868 5867 5867
5775 5778 5780 5782 5785 5789 5796 5802 5806 5810 5813 5816 5819 5822 5824 5827 5829 5830 5834 5837 5840 5842 5845 5847 5848 5850 5852 5853 5855 5856 5857 5859 5859 5860 5861 5862 5863 5863 5864 5864 5864 5865 5865 5865 5865 5865 5865 5865 5865
5767 5769 5772 5775 5778 5784 5792 5797 5800 5803 5806 5810 5813 5815 5818 5821 5824 5826 5829 5832 5836 5838 5840 5843 5845 5847 5848 5850 5852 5853 5854 5856 5857 5858 5859 5859 5860 5861 5861 5862 5862 5862 5863 5863 5863 5863 5863 5863 5862
5758 5761 5764 5768 5772 5780 5786 5790 5793 5796 5800 5803 5806 5809 5813 5816 5819 5822 5824 5827 5831 5834 5836 5839 5841 5843 5845 5847 5848 5850 5851 5853 5854 5855 5856 5857 5858 5858 5859 5859 5859 5860 5860 5860 5860 5860 5860 5860 5859
5750 5753 5756 5760 5767 5774 5778 5782 5785 5788 5792 5796 5799 5803 5807 5810 5812 5815 5819 5822 5826 5829 5831 5834 5837 5839 5841 5843 5845 5846 5848 5849 5850 5851 5853 5854 5854 5855 5855 5856 5856 5856 5857 5857 5857 5857 5857 5856 5856
5742 5745 5749 5754 5761 5767 5771 5774 5777 5781 5785 5788 5792 5795 5799 5803 5806 5809 5812 5816 5820 5823 5826 5829 5832 5834 5836 5839 5841 5842 5844 5845 5847 5848 5849 5850 5851 5852 5852 5852 5853 5853 5853 5853 5853 5853 5853 5853 5853
5735 5738 5742 5748 5753 5759 5763 5766 5769 5773 5777 5781 5784 5787 5792 5795 5799 5802 5806 5809 5813 5817 5820 5824 5827 5829 5832 5834 5836 5838 5840 5841 5843 5844 5845 5846 5847 5848 5848 5849 5849 5849 5849 5850 5850 5850 5850 5849 5849
5726 5730 5734 5739 5745 5750 5755 5758 5762 5765 5769 5773 5776 5780 5784 5788 5792 5796 5799 5803 5807 5811 5814 5818 5821 5824 5826 5829 5831 5833 5835 5837 5839 5840 5841 5842 5843 5844 5844 5845 5845 5845 5845 5846 5846 5846 5846 5846 5845
5716 5721 5725 5732 5737 5742 5745 5749 5753 5757 5760 5764 5768 5773 5777 5781 5785 5789 5793 5797 5800 5804 5808 5811 5815 5818 5821 5824 5826 5828 5831 5832 5834 5835 5836 5838 5839 5839 5840 5840 5841 5841 5841 5841 5841 5842 5842 5841 5841
5706 5711 5719 5725 5729 5732 5735 5740 5744 5748 5751 5756 5760 5765 5769 5773 5777 5781 5785 5790 5793 5797 5801 5805 5809 5812 5815 5818 5821 5823 5825 5827 5829 5830 5831 5833 5834 5834 5835 5836 5836 5836 5836 5837 5837 5837 5837 5837 5836
5698 5705 5712 5715 5718 5721 5725 5731 5735 5739 5743 5748 5753 5757 5761 5765 5769 5774 5778 5782 5786 5790 5794 5798 5802 5805 5809 5812 5815 5817 5820 5822 5823 5825 5826 5828 5828 5829 5830 5830 5831 5831 5832 5832 5832 5832 5832 5832 5831
5691 5697 5701 5704 5708 5712 5717 5722 5727 5731 5735 5740 5744 5748 5752 5757 5762 5766 5770 5774 5779 5783 5787 5791 5795 5799 5802 5806 5809 5811 5814 5816 5817 5819 5821 5822 5823 5824 5824 5825 5826 5826 5827 5827 5827 5827 5826 5826 5825
5681 5687 5691 5695 5700 5704 5708 5713 5718 5722 5727 5731 5735 5740 5745 5750 5754 5758 5762 5766 5771 5776 5780 5784 5788 5792 5796 5799 5802 5805 5807 5810 5811 5813 5815 5816 5817 5818 5819 5820 5820 5821 5821 5821 5821 5821 5821 5820 5819
5673 5677 5681 5686 5691 5695 5699 5704 5709 5715 5719 5723 5727 5732 5737 5741 5746 5750 5754 5759 5763 5768 5773 5777 5781 5785 5789 5792 5795 5798 5801 5803 5805 5807 5808 5810 5811 5812 5813 5814 5814 5815 5815 5815 5815 5815 5814 5814 5813
5663 5668 5672 5676 5682 5686 5691 5696 5701 5706 5710 5715 5719 5724 5729 5733 5738 5742 5747 5752 5756 5761 5766 5770 5774 5777 5781 5785 5788 5791 5794 5796 5799 5800 5802 5803 5804 5805 5807 5807 5808 5808 5808 5809 5809 5809 5808 5808 5807
5654 5658 5663 5669 5673 5677 5683 5688 5694 5697 5702 5706 5711 5716 5721 5725 5730 5735 5740 5744 5749 5753 5758 5762 5766 5770 5774 5777 5781 5784 5787 5789 5791 5793 5795 5796 5798 5799 5800 5801 5801 5802 5802 5802 5802 5802 5802 5801 5800
5644 5649 5655 5660 5664 5668 5673 5679 5685 5689 5694 5698 5703 5708 5712 5718 5723 5728 5732 5737 5741 5746 5750 5755 5758 5762 5766 5770 5773 5776 5779 5782 5784 5786 5787 5789 5791 5792 5793 5794 5795 5795 5795 5796 5795 5795 5795 5794 5794
5638 5643 5647 5651 5656 5660 5665 5671 5676 5681 5685 5690 5694 5699 5704 5710 5716 5721 5725 5729 5734 5738 5743 5747 5751 5755 5759 5762 5766 5769 5772 5775 5777 5779 5780 5782 5784 5785 5786 5787 5788 5788 5789 5789 5788 5788 5788 5787 5787
5631 5635 5639 5643 5647 5652 5657 5662 5667 5672 5676 5681 5686 5691 5697 5702 5708 5713 5717 5721 5726 5731 5735 5739 5743 5747 5751 5755 5758 5761 5764 5767 5770 5772 5773 5775 5777 5778 5779 5780 5781 5781 5782 5782 5782 5781 5781 5780 5780
5622 5626 5631 5636 5640 5644 5648 5653 5658 5663 5668 5673 5678 5683 5689 5694 5700 5705 5709 5714 5719 5723 5728 5732 5736 5740 5744 5747 5750 5754 5756 5759 5762 5764 5766 5768 5769 5771 5772 5773 5774 5774 5775 5775 5775 5774 5774 5773 5772
5615 5619 5624 5628 5632 5636 5640 5644 5649 5655 5660 5665 5670 5675 5681 5686 5692 5697 5702 5707 5711 5716 5720 5724 5728 5732 5736 5739 5743 5746 5749 5751 5754 5757 5759 5760 5762 5764 5765 5766 5767 5767 5768 5768 5767 5767 5767 5766 5765
5608 5614 5617 5620 5624 5627 5632 5635 5642 5647 5651 5657 5662 5668 5674 5679 5684 5689 5694 5699 5704 5708 5712 5716 5720 5724 5728 5731 5735 5738 5741 5744 5747 5749 5751 5753 5755 5757 5758 5759 5760 5760 5760 5760 5760 5760 5759 5759 5758
5603 5607 5611 5614 5617 5621 5624 5628 5634 5638 5644 5650 5655 5661 5666 5671 5676 5682 5687 5691 5696 5700 5704 5708 5712 5716 5720 5724 5727 5730 5733 5736 5739 5741 5744 5746 5748 5749 5751 5752 5752 5752 5753 5753 5752 5752 5752 5751 5750
5597 5601 5605 5607 5609 5613 5618 5622 5626 5631 5638 5643 5648 5653 5658 5663 5668 5673 5678 5683 5687 5692 5696 5700 5704 5708 5712 5716 5719 5722 5725 5728 5731 5733 5736 5738 5740 5742 5743 5744 5745 5745 5745 5745 5745 5745 5744 5743 5742
5590 5595 5598 5599 5601 5606 5612 5615 5620 5625 5631 5636 5641 5645 5650 5656 5660 5665 5670 5675 5680 5684 5688 5692 5696 5700 5704 5707 5710 5714 5717 5720 5723 5726 5728 5731 5733 5734 5735 5736 5737 5737 5737 5738 5737 5737 5736 5735 5734
5585 5589 5592 5595 5597 5601 5605 5608 5614 5619 5623 5628 5633 5638 5642 5648 5653 5657 5662 5667 5671 5676 5680 5684 5688 5692 5696 5699 5702 5706 5709 5712 5715 5718 5720 5723 5725 5726 5728 5728 5729 5730 5730 5730 5729 5729 5728 5727 5726
5579 5583 5587 5590 5592 5596 5598 5602 5607 5611 5616 5620 5625 5630 5635 5640 5645 5649 5654 5658 5663 5667 5672 5676 5680 5684 5688 5691 5694 5698 5701 5704 5707 5710 5712 5714 5716 5718 5719 5720 5721 5722 5722 5722 5721 5721 5720 5719 5717
5576 5579 5582 5584 5587 5589 5593 5596 5601 5605 5609 5613 5618 5622 5627 5632 5637 5641 5645 5650 5654 5659 5663 5667 5671 5675 5679 5683 5686 5690 5693 5696 5698 5701 5704 5706 5708 5710 5711 5712 5713 5713 5714 5713 5713 5712 5712 5711 5709
5570 5573 5576 5579 5582 5585 5587 5593 5595 5598 5603 5607 5611 5615 5619 5624 5629 5633 5637 5642 5646 5650 5654 5659 5663 5667 5671 5675 5678 5681 5685 5688 5690 5693 5695 5698 5700 5701 5703 5704 5705 5705 5705 5705 5704 5704 5703 5702 5700
5565 5568 5572 5575 5578 5580 5583 5589 5589 5593 5596 5600 5604 5607 5611 5616 5620 5625 5629 5633 5637 5642 5646 5650 5655 5659 5662 5666 5669 5673 5676 5679 5681 5684 5686 5689 5691 5693 5694 5695 5696 5696 5696 5696 5696 5695 5694 5693 5691